WetterOnline ( http://www.wetteronline.de )

Wetter aktuell Großolbersdorf

Aktuelles Wetter: Marienberg (640m)

6-stündlich | Neueste Meldungen
Ortszeit Temperatur Wetter
Di, 16.10. 20:00 11.8° C wolkig
Di, 16.10. 14:00 16.9° C wolkig
Di, 16.10. 8:00 10.9° C bewölkt
Di, 16.10. 2:00 12.2° C bedeckt
Mo, 15.10. 20:00 14.9° C bewölkt
Mo, 15.10. 14:00 15.2° C bedeckt
Mo, 15.10. 8:00 10.9° C wolkenlos
Mo, 15.10. 2:00 12.0° C wolkenlos
Ortszeit Temperatur Wetter
Di, 16.10. 20:30 11.2° C bedeckt
Di, 16.10. 20:20 11.2° C bedeckt
Di, 16.10. 20:10 11.3° C bewölkt
Di, 16.10. 20:00 11.8° C wolkig
Di, 16.10. 19:50 11.8° C wolkig
Di, 16.10. 19:40 12.3° C wolkig
Di, 16.10. 19:30 12.6° C bedeckt
Di, 16.10. 19:00 13.1° C bedeckt
Di, 16.10. 18:30 13.7° C bewölkt
Di, 16.10. 18:00 14.7° C bewölkt
Di, 16.10. 17:30 15.7° C bewölkt
Ortszeit Relative Feuchte Sichtweite
Di, 16.10. 20:00 76% 18 km
Di, 16.10. 14:00 49% 30 km
Di, 16.10. 8:00 65% 35 km
Di, 16.10. 2:00 58% 35 km
Mo, 15.10. 20:00 46% 35 km
Mo, 15.10. 14:00 43% 40 km
Mo, 15.10. 8:00 - 50 km
Mo, 15.10. 2:00 - 50 km
Ortszeit Relative Feuchte Sichtweite
Di, 16.10. 20:30 78% 29 km
Di, 16.10. 20:20 78% -
Di, 16.10. 20:10 78% -
Di, 16.10. 20:00 76% 18 km
Di, 16.10. 19:50 76% -
Di, 16.10. 19:40 75% -
Di, 16.10. 19:30 73% 30 km
Di, 16.10. 19:00 70% 29 km
Di, 16.10. 18:30 67% 35 km
Di, 16.10. 18:00 61% 35 km
Di, 16.10. 17:30 59% 35 km
Ortszeit Niederschlagsmenge Niederschlagsart
Di, 16.10. 20:00 0.1 l/m2 in 12 Std. -
Di, 16.10. 14:00 0.1 l/m2 in 6 Std. Regen
Di, 16.10. 8:00 0.0 l/m2 in 12 Std. -
Di, 16.10. 2:00 0.0 l/m2 in 6 Std. -
Mo, 15.10. 20:00 0.0 l/m2 in 12 Std. -
Mo, 15.10. 14:00 0.0 l/m2 in 6 Std. -
Mo, 15.10. 8:00 0.0 l/m2 in 12 Std. -
Mo, 15.10. 2:00 0.0 l/m2 in 6 Std. -
Ortszeit Niederschlagsmenge Niederschlagsart
Di, 16.10. 20:30 0.0 l/m2 in 1 Std. -
Di, 16.10. 20:20 keine Meldung -
Di, 16.10. 20:10 keine Meldung -
Di, 16.10. 20:00 0.0 l/m2 in 1 Std. -
Di, 16.10. 19:50 keine Meldung -
Di, 16.10. 19:40 keine Meldung -
Di, 16.10. 19:30 0.0 l/m2 in 1 Std. -
Di, 16.10. 19:00 0.0 l/m2 in 1 Std. -
Di, 16.10. 18:30 0.0 l/m2 in 1 Std. -
Di, 16.10. 18:00 0.0 l/m2 in 1 Std. -
Di, 16.10. 17:30 0.0 l/m2 in 1 Std. -
Ortszeit Stärke Spitze Richtung
km/h Bft. km/h Grad Sektor
Di, 16.10. 20:00 4 1 18 260° W
Di, 16.10. 14:00 6 1 15 240° SW
Di, 16.10. 8:00 7 2 22 140° SO
Di, 16.10. 2:00 11 2 36 140° SO
Mo, 15.10. 20:00 9 2 37 130° SO
Mo, 15.10. 14:00 11 2 40 130° SO
Mo, 15.10. 8:00 14 3 43 130° SO
Mo, 15.10. 2:00 22 4 40 140° SO
Ortszeit Stärke Spitze Richtung
km/h Bft. km/h Grad Sektor
Di, 16.10. 20:30 4 1 7 240° SW
Di, 16.10. 20:20 4 1 - 240° SW
Di, 16.10. 20:10 4 1 - 230° SW
Di, 16.10. 20:00 4 1 4 260° W
Di, 16.10. 19:50 4 1 - 260° W
Di, 16.10. 19:40 2 1 - 250° W
Di, 16.10. 19:30 0 0 4 - -
Di, 16.10. 19:00 0 0 7 - -
Di, 16.10. 18:30 2 1 6 120° SO
Di, 16.10. 18:00 4 1 11 290° W
Di, 16.10. 17:30 7 2 11 310° NW
Ortszeit Untergrenze Bedeckung Gattung
total tief tief mittel hoch
Di, 16.10. 20:00 2400 m 8/8 1/8 - - -
Di, 16.10. 14:00 3900 m 6/8 6/8 - - -
Di, 16.10. 8:00 2700 m 8/8 5/8 - - -
Di, 16.10. 2:00 3600 m 8/8 8/8 - - -
Mo, 15.10. 20:00 2400 m 8/8 7/8 - - -
Mo, 15.10. 14:00 4800 m 8/8 8/8 - - -
Mo, 15.10. 8:00 - 0/8 0/8 - - -
Mo, 15.10. 2:00 - 0/8 0/8 - - -
Ortszeit Bedeckungsgrad in Achtel und Wolkenuntergrenze
Di, 16.10. 20:30 8(2400m) 8(3900m)
Di, 16.10. 20:20 8(2400m) 8(3900m)
Di, 16.10. 20:10 7(2400m) 8(3300m)
Di, 16.10. 20:00 1(2400m) 8(3000m)
Di, 16.10. 19:50 1(2400m) 8(3000m)
Di, 16.10. 19:40 1(2400m) 8(3000m) 8(3900m)
Di, 16.10. 19:30 8(2700m) 8(3900m)
Di, 16.10. 19:00 8(2700m)
Di, 16.10. 18:30 7(2700m) 7(3600m)
Di, 16.10. 18:00 4(2700m) 8(3300m)
Di, 16.10. 17:30 7(2700m) 8(3600m)
Ortszeit Luftdruck NN (hPa) Tendenz (hPa in 3 Std.)
Di, 16.10. 20:00 1020 + 0,9
Di, 16.10. 14:00 1018 + 0,2
Di, 16.10. 8:00 1019 + 0,6
Di, 16.10. 2:00 1018 + 0,2
Mo, 15.10. 20:00 1017 + 0,1
Mo, 15.10. 14:00 1017 + 0,5
Mo, 15.10. 8:00 1017 + 0,3
Mo, 15.10. 2:00 1016 - 0,1
Ortszeit Luftdruck NN (hPa) Tendenz (hPa in 3 Std.)
Di, 16.10. 20:30 1021 + 0,8
Di, 16.10. 20:20 1021 keine Meldung
Di, 16.10. 20:10 1021 keine Meldung
Di, 16.10. 20:00 1020 + 0,9
Di, 16.10. 19:50 1020 keine Meldung
Di, 16.10. 19:40 1020 keine Meldung
Di, 16.10. 19:30 1020 + 1,0
Di, 16.10. 19:00 1020 + 0,9
Di, 16.10. 18:30 1019 + 0,9
Di, 16.10. 18:00 1019 + 0,6
Di, 16.10. 17:30 1018 + 0,4
Ortszeit Schneehöhe (cm)
Di, 16.10. 20:00 0
Di, 16.10. 14:00 0
Di, 16.10. 8:00 0
Di, 16.10. 2:00 0
Mo, 15.10. 20:00 0
Mo, 15.10. 14:00 0
Mo, 15.10. 8:00 0
Mo, 15.10. 2:00 0
Ortszeit Schneehöhe (cm)
Di, 16.10. 20:30 0
Di, 16.10. 20:20 0
Di, 16.10. 20:10 0
Di, 16.10. 20:00 0
Di, 16.10. 19:50 0
Di, 16.10. 19:40 0
Di, 16.10. 19:30 0
Di, 16.10. 19:00 0
Di, 16.10. 18:30 0
Di, 16.10. 18:00 0
Di, 16.10. 17:30 0
Link zu dieser Seite / Seite empfehlen

Das Wetter in ...